Date,TemperatureHighF,TemperatureAvgF,TemperatureLowF,DewpointHighF,DewpointAvgF,DewpointLowF,HumidityHigh,HumidityAvg,HumidityLow,PressureMaxIn,PressureMinIn,WindSpeedMaxMPH,WindSpeedAvgMPH,GustSpeedMaxMPH,PrecipitationSumIn
2013-1-1,35.4,32.0,21.6,30.2,24.3,13.0,87,73,59,29.10,28.92,14,4,23,0.00
2013-1-2,29.5,23.5,17.8,17.4,14.1,10.5,74,67,54,29.25,29.06,13,4,21,0.00
2013-1-3,34.5,25.7,15.6,21.6,17.2,13.4,92,70,50,29.26,29.13,8,2,12,0.00
2013-1-4,36.7,30.9,27.1,26.6,23.0,20.2,85,73,59,29.15,29.02,16,4,24,0.00
2013-1-5,44.4,31.4,23.5,26.6,22.2,18.9,92,70,45,29.36,29.08,17,4,25,0.00
2013-1-6,47.1,35.8,26.6,32.5,28.6,24.1,95,76,52,29.30,29.05,7,2,11,0.00
2013-1-7,47.3,34.7,22.3,31.1,26.4,20.9,96,73,42,29.48,29.14,11,2,17,0.00
2013-1-8,49.6,35.3,21.4,32.5,27.8,20.9,99,76,48,29.48,29.41,6,1,9,0.00
2013-1-9,43.0,34.6,22.1,37.5,31.0,21.9,99,87,71,29.47,29.21,11,2,18,0.00
2013-1-10,47.7,39.2,31.6,32.7,27.2,24.6,86,63,43,29.62,29.31,16,4,27,0.00
2013-1-11,41.2,35.5,29.1,40.9,32.0,25.6,99,87,70,29.61,29.18,5,1,10,0.31
2013-1-12,51.4,40.7,36.5,47.8,40.0,36.2,99,98,81,29.26,29.17,3,0,6,0.01
2013-1-13,46.0,42.3,37.6,45.8,42.0,37.3,99,99,99,29.24,29.09,5,0,9,0.01
2013-1-14,56.5,45.7,34.2,52.1,40.9,28.0,99,85,55,29.39,28.98,12,2,19,0.06
2013-1-15,35.1,33.3,31.8,32.6,29.9,27.5,98,87,77,29.43,29.29,7,1,11,0.04
2013-1-16,33.8,30.9,28.8,33.5,30.6,28.5,99,99,93,29.29,28.89,0,0,0,0.00
2013-1-17,42.3,35.5,31.3,33.9,28.7,23.3,99,77,60,29.19,28.99,13,3,24,0.15
2013-1-18,31.1,25.3,21.2,24.0,13.3,5.3,81,61,38,29.53,29.09,14,3,22,0.00
2013-1-19,49.1,37.1,22.3,30.4,24.4,12.1,79,61,44,29.45,28.99,8,3,16,0.00
2013-1-20,50.4,38.3,24.6,32.5,24.0,11.4,77,58,29,29.12,28.79,20,5,34,0.00
2013-1-21,28.8,24.1,21.4,21.0,14.3,8.8,90,67,48,29.15,28.90,11,2,17,0.00
2013-1-22,21.4,15.1,8.6,14.3,4.7,-4.9,90,64,35,29.25,28.90,16,7,27,0.00
2013-1-23,18.9,10.3,5.9,3.4,0.3,-3.0,87,64,39,29.30,29.21,14,5,21,0.00
2013-1-24,21.2,12.4,3.9,4.7,1.7,-2.4,92,64,38,29.47,29.18,17,5,27,0.00
2013-1-25,24.1,13.7,8.1,13.4,5.8,-1.1,93,71,46,29.47,29.11,12,2,18,0.00
2013-1-26,26.6,16.6,10.2,11.9,8.4,6.4,96,72,45,29.44,29.10,14,4,28,0.00
2013-1-27,33.8,22.8,14.5,15.4,11.8,8.7,82,64,40,29.59,29.43,12,3,22,0.00
2013-1-28,33.6,27.5,18.1,33.4,25.2,12.7,99,91,73,29.55,29.07,6,0,10,0.01
2013-1-29,58.1,41.2,33.8,47.1,39.2,33.5,99,93,59,29.24,29.08,5,1,11,0.26
2013-1-30,61.9,48.7,40.3,61.1,48.4,39.8,99,99,97,29.15,28.44,9,2,17,0.32
2013-1-31,61.2,40.6,25.2,60.9,31.0,12.2,99,70,44,28.85,28.16,26,9,38,1.03
2013-2-1,30.0,23.6,19.6,18.1,13.2,3.4,85,65,36,29.28,28.84,18,6,30,0.00
2013-2-2,31.1,20.4,13.6,19.5,12.1,6.3,96,72,36,29.34,29.10,11,3,18,0.00
2013-2-3,34.3,20.7,15.3,24.1,17.9,14.3,99,89,59,29.10,28.87,6,1,9,0.02
2013-2-4,29.8,22.7,17.6,22.0,13.0,9.5,99,67,47,29.03,28.88,14,4,22,0.00
2013-2-5,28.8,25.6,22.5,26.7,22.8,18.0,99,89,79,29.04,28.96,6,1,8,0.00
2013-2-6,37.4,29.3,23.0,27.4,21.0,8.6,99,73,45,29.42,28.99,14,3,22,0.03
2013-2-7,33.3,23.7,15.8,15.3,11.8,9.0,81,61,42,29.56,29.41,7,1,12,0.00
2013-2-8,30.7,28.7,26.2,30.5,28.5,25.8,99,99,99,28.92,28.76,11,4,17,0.00
2013-2-9,31.5,24.4,15.4,27.3,16.3,8.1,99,73,42,29.42,28.84,22,8,36,0.00
2013-2-10,45.7,26.5,13.6,19.7,13.4,8.2,88,61,25,29.53,29.37,8,2,13,0.03
2013-2-11,42.1,36.0,28.4,41.8,34.2,17.9,99,93,63,29.38,28.76,8,1,12,0.18
2013-2-12,42.1,36.9,30.7,37.3,28.2,25.4,99,71,57,29.06,28.81,16,5,35,0.00
2013-2-13,51.3,34.2,20.8,32.5,26.6,20.6,99,77,40,29.04,28.77,4,1,7,0.00
2013-2-14,50.0,35.8,26.4,36.1,29.2,25.4,99,80,42,29.08,28.80,6,1,10,0.12
2013-2-15,55.0,41.0,26.4,35.9,30.6,26.2,99,70,40,29.08,29.00,11,2,16,0.01
2013-2-16,34.9,30.8,25.0,33.2,24.6,11.9,99,79,58,29.06,28.84,11,2,17,0.03
2013-2-17,28.2,21.9,13.6,14.1,6.7,1.1,85,52,37,29.07,28.77,24,9,40,0.00
2013-2-18,34.9,22.5,11.8,17.1,8.3,1.6,70,55,32,29.31,29.07,22,6,36,0.00
2013-2-19,41.0,32.6,22.8,38.9,26.7,13.2,99,80,53,29.25,28.77,13,2,22,0.25
2013-2-20,32.9,26.1,21.0,25.9,15.7,10.4,80,65,51,29.05,28.80,18,8,27,0.00
2013-2-21,31.6,23.5,18.1,16.7,13.5,11.4,81,65,53,29.38,29.03,18,7,34,0.00
2013-2-22,36.3,27.9,17.2,31.5,21.4,13.3,96,77,57,29.46,29.33,8,2,12,0.01
2013-2-23,39.6,35.3,32.5,39.3,35.0,31.5,99,99,96,29.33,28.91,9,2,15,0.16
2013-2-24,45.3,35.1,29.3,39.8,30.7,22.7,99,85,64,29.07,28.86,14,4,24,0.00
2013-2-25,41.9,34.1,28.2,31.6,27.8,22.8,94,78,63,29.32,29.07,9,3,15,0.00
2013-2-26,41.2,33.4,24.4,34.6,30.5,24.2,99,90,71,29.36,28.96,11,2,24,0.03
2013-2-27,48.9,39.9,33.1,48.5,38.9,32.8,99,96,87,28.97,28.60,14,4,31,0.32
2013-2-28,52.7,39.3,33.8,41.2,33.9,29.0,99,82,53,28.72,28.64,7,2,11,0.01
2013-3-1,43.7,35.6,31.5,32.0,29.3,25.9,97,79,57,28.88,28.71,11,4,20,0.00
2013-3-2,36.7,30.6,26.4,26.4,24.1,21.0,95,77,62,28.88,28.80,14,5,19,0.00
2013-3-3,35.6,27.7,24.1,21.7,19.2,15.7,81,70,55,28.87,28.76,17,6,28,0.00
2013-3-4,38.5,30.1,23.5,21.9,19.7,15.5,80,66,50,29.01,28.85,17,8,30,0.00
2013-3-5,49.8,36.2,27.3,29.4,24.9,21.7,79,65,42,29.11,29.00,16,4,28,0.00
2013-3-6,38.1,35.9,34.3,36.9,31.2,26.6,99,83,72,29.06,28.95,13,4,22,0.06
2013-3-7,39.2,33.9,29.5,33.9,29.1,25.2,99,83,67,29.19,29.04,14,5,33,0.00
2013-3-8,41.4,32.3,27.1,38.1,29.7,26.0,99,91,70,29.31,29.10,14,6,23,0.02
2013-3-9,61.7,40.0,28.0,31.1,24.9,17.2,89,60,20,29.41,29.28,9,3,16,0.00
2013-3-10,57.0,39.1,25.2,36.4,30.3,23.8,99,74,39,29.45,29.35,8,2,14,0.00
2013-3-11,55.0,43.3,34.3,49.0,40.9,34.1,99,92,54,29.40,29.16,8,2,14,0.00
2013-3-12,55.2,49.8,40.1,54.9,48.8,36.5,99,96,86,29.17,28.77,12,4,25,1.21
2013-3-13,50.4,40.3,31.1,37.5,31.0,23.2,99,72,37,28.98,28.89,13,4,19,0.00
2013-3-14,39.0,31.2,25.0,27.4,13.8,5.1,83,50,28,29.04,28.93,23,9,35,0.00
2013-3-15,42.4,34.7,25.3,31.6,22.0,12.5,75,60,44,29.06,28.80,16,5,27,0.00
2013-3-16,37.0,32.0,29.5,30.8,25.9,20.2,98,79,57,29.00,28.85,10,1,18,0.02
2013-3-17,34.5,29.7,23.7,29.5,19.1,13.5,99,66,46,29.37,28.99,11,2,19,0.01
2013-3-18,32.5,26.8,20.5,29.6,18.3,8.1,99,72,48,29.45,29.06,11,3,23,0.00
2013-3-19,45.9,35.1,30.0,38.1,32.7,19.0,99,92,56,29.06,28.78,12,2,22,0.21
2013-3-20,43.2,34.3,27.7,26.9,21.5,17.3,83,60,40,28.96,28.86,14,4,24,0.00
2013-3-21,40.3,30.5,25.9,27.4,17.2,9.9,90,59,33,28.93,28.72,11,4,17,0.00
2013-3-22,37.6,31.1,25.0,25.2,20.2,12.6,82,64,50,28.97,28.81,14,6,24,0.00
2013-3-23,42.6,35.4,30.2,24.9,21.2,17.4,73,57,40,29.03,28.92,22,6,30,0.00
2013-3-24,48.2,37.3,26.1,25.2,22.1,18.9,77,55,37,29.04,28.79,11,3,19,0.00
2013-3-25,41.2,36.5,33.1,33.8,28.3,23.7,95,72,62,28.79,28.56,8,2,16,0.02
2013-3-26,52.7,40.6,34.0,35.6,29.4,24.2,90,67,36,28.97,28.69,12,3,21,0.00
2013-3-27,52.2,40.1,29.1,32.7,27.7,20.1,83,63,29,29.09,28.97,12,4,23,0.00
2013-3-28,47.5,40.3,33.8,32.1,30.8,28.1,89,70,49,29.22,29.06,13,4,18,0.00
2013-3-29,53.4,43.1,34.2,32.4,29.4,25.4,82,60,36,29.24,29.17,11,4,20,0.00
2013-3-30,61.9,45.1,30.2,32.4,25.7,9.4,93,52,15,29.26,29.16,11,3,16,0.01
2013-3-31,58.5,42.3,28.8,42.9,32.2,22.5,99,71,33,29.22,28.78,10,2,20,0.16
2013-4-1,61.5,45.3,33.1,46.7,35.6,11.5,99,72,30,29.00,28.73,19,4,30,0.00
2013-4-2,41.9,34.4,28.0,20.4,15.3,10.7,67,46,29,29.17,29.00,18,6,30,0.00
2013-4-3,44.8,35.2,28.6,18.4,13.6,8.4,60,42,25,29.39,29.16,17,7,27,0.00
2013-4-4,58.5,41.5,27.7,25.0,19.8,15.9,67,44,22,29.45,29.14,17,3,26,0.00
2013-4-5,61.5,46.5,32.9,31.2,23.5,14.4,79,44,19,29.14,28.84,16,4,26,0.00
2013-4-6,55.6,41.3,30.2,23.4,13.8,-2.0,70,37,10,29.37,29.10,14,3,24,0.00
2013-4-7,64.6,48.8,35.6,44.3,33.2,23.6,80,58,29,29.37,29.05,11,3,21,0.00
2013-4-8,78.8,60.9,42.8,47.3,42.6,34.8,96,56,21,29.18,29.06,8,2,12,0.00
2013-4-9,81.3,66.4,51.4,52.8,44.3,31.3,93,51,18,29.09,29.00,17,3,27,0.00
2013-4-10,84.4,65.0,51.8,59.6,52.8,43.3,99,68,35,29.05,28.89,17,2,27,0.44
2013-4-11,63.5,54.8,44.4,58.5,50.8,42.3,99,88,59,29.12,28.89,11,2,18,0.04
2013-4-12,44.4,40.9,37.9,44.2,40.0,37.7,99,97,83,29.09,28.81,15,5,31,0.36
2013-4-13,59.9,47.1,37.0,47.9,37.7,33.8,99,73,42,29.06,28.85,11,2,17,0.01
2013-4-14,56.5,49.1,43.9,37.5,32.0,26.4,73,53,34,29.29,29.05,16,3,24,0.00
2013-4-15,62.2,48.9,38.7,39.9,31.4,27.2,80,52,34,29.44,29.29,10,2,17,0.00
2013-4-16,71.6,57.8,44.6,57.2,49.9,39.2,98,76,56,29.44,29.19,9,2,17,0.00
2013-4-17,72.3,59.7,49.6,58.0,41.9,28.5,99,58,21,29.39,29.22,11,3,18,0.03
2013-4-18,59.2,50.6,43.5,51.9,44.3,37.2,99,80,45,29.41,29.18,11,3,24,0.00
2013-4-19,77.4,63.9,52.3,66.6,60.9,51.0,99,91,65,29.18,28.72,12,4,23,0.55
2013-4-20,57.7,49.8,40.5,50.2,36.0,23.3,99,62,35,29.41,28.80,15,6,25,0.10
2013-4-21,56.5,43.3,31.6,26.9,22.6,16.3,72,46,24,29.70,29.40,11,3,19,0.00
2013-4-22,55.2,44.4,33.3,35.9,30.5,25.2,92,60,36,29.73,29.56,13,3,23,0.00
2013-4-23,49.6,42.6,35.6,42.6,37.6,31.5,96,83,74,29.56,29.21,8,2,14,0.00
2013-4-24,75.2,56.3,34.3,55.5,46.5,33.9,99,74,44,29.21,28.89,8,2,16,0.00
2013-4-25,67.5,53.7,41.4,56.5,31.5,17.2,92,48,16,29.36,28.95,16,5,30,0.00
2013-4-26,67.3,52.7,38.5,37.9,30.1,15.5,86,48,15,29.51,29.36,10,2,17,0.00
2013-4-27,73.9,56.3,35.6,38.2,31.3,22.5,89,45,17,29.52,29.36,8,1,12,0.00
2013-4-28,76.3,58.7,39.7,43.8,37.1,28.8,88,49,24,29.40,29.26,7,2,14,0.00
2013-4-29,54.9,51.1,49.6,50.6,48.4,39.0,99,91,55,29.33,29.26,8,2,17,0.15
2013-4-30,69.8,55.5,43.5,54.2,40.5,23.8,99,65,22,29.43,29.29,11,2,16,0.01
2013-5-1,70.9,54.6,36.1,45.0,34.2,16.8,92,54,15,29.57,29.42,12,2,17,0.00
2013-5-2,77.9,59.7,38.8,51.8,40.9,34.7,99,58,23,29.57,29.41,8,2,13,0.00
2013-5-3,67.6,57.4,44.6,43.9,37.6,27.1,90,51,24,29.54,29.43,11,2,21,0.00
2013-5-4,75.9,56.1,40.5,50.3,42.0,35.5,99,66,25,29.47,29.29,10,2,17,0.00
2013-5-5,69.6,52.3,38.3,44.5,40.5,33.1,99,70,29,29.38,29.28,8,2,15,0.00
2013-5-6,73.4,55.3,39.4,55.3,48.2,39.1,99,80,47,29.35,29.23,8,2,13,0.00
2013-5-7,75.4,61.7,45.7,60.5,53.0,45.4,99,76,46,29.27,29.17,9,2,17,0.00
2013-5-8,70.7,60.7,51.8,66.3,59.4,51.5,99,96,75,29.20,29.05,10,2,17,1.50
2013-5-9,71.4,58.7,50.9,61.1,55.4,50.6,99,90,62,29.11,29.00,5,1,8,0.11
2013-5-10,83.3,68.0,51.8,64.0,56.7,51.5,99,72,36,29.12,29.00,6,1,10,0.01
2013-5-11,74.5,64.4,60.3,69.1,62.9,60.0,99,95,74,29.02,28.81,8,1,12,0.82
2013-5-12,67.8,58.7,47.1,60.2,44.0,26.4,99,61,29,29.04,28.79,13,4,22,0.01
2013-5-13,55.2,47.2,39.6,37.1,33.3,25.5,87,60,36,29.22,29.04,11,3,21,0.00
2013-5-14,63.1,49.1,37.2,36.2,30.7,17.3,87,55,19,29.24,29.12,10,2,14,0.00
2013-5-15,73.6,57.9,39.0,59.8,48.1,35.5,97,71,49,29.18,28.79,7,1,14,0.00
2013-5-16,85.3,68.2,52.0,63.3,53.4,42.4,99,65,34,28.97,28.84,7,1,14,0.00
2013-5-17,75.0,62.3,50.9,46.4,42.1,36.6,82,50,27,29.32,28.97,10,2,17,0.00
2013-5-18,68.4,56.4,47.3,56.9,51.1,45.1,99,84,47,29.40,29.31,5,1,8,0.00
2013-5-19,59.5,56.2,54.1,59.3,55.9,53.9,99,99,98,29.40,29.27,8,2,17,0.30
2013-5-20,83.1,67.5,56.3,69.0,63.2,56.0,99,88,59,29.28,29.07,5,1,8,0.01
2013-5-21,91.2,74.8,59.9,72.7,68.0,59.6,99,82,49,29.09,28.95,5,1,14,0.00
2013-5-24,70.9,43.7,42.3,69.7,43.0,42.0,99,97,93,29.07,28.96,11,4,17,1.84
2013-5-25,54.5,47.3,42.1,44.8,41.9,38.5,99,83,59,29.12,29.02,17,5,28,0.12
2013-5-26,67.1,54.7,43.0,43.7,38.6,32.8,90,59,31,29.32,29.08,14,4,29,0.00
2013-5-27,78.3,58.4,38.7,51.8,42.3,33.3,99,62,23,29.36,29.23,7,1,12,0.00
2013-5-28,66.7,55.1,46.6,56.6,52.4,46.3,99,92,56,29.33,29.22,6,1,9,0.45
2013-5-29,85.6,69.7,55.8,71.4,64.3,55.5,99,85,60,29.24,29.11,6,1,11,0.00
2013-5-30,93.9,78.5,65.1,73.2,66.8,63.4,99,71,41,29.25,29.18,6,1,10,0.00
2013-5-31,95.7,79.4,63.7,75.7,66.3,61.5,99,69,36,29.25,29.11,7,1,11,0.00
2013-6-1,92.8,79.3,64.8,73.0,68.8,62.8,99,73,47,29.14,29.02,5,1,11,0.00
2013-6-2,89.8,77.9,68.4,75.8,70.4,68.1,99,80,52,29.03,28.90,6,1,13,0.52
2013-6-3,84.4,71.6,61.3,70.0,64.5,46.4,99,80,53,29.02,28.92,6,1,11,0.25
2013-6-4,77.7,63.9,51.6,49.9,46.0,41.3,87,55,32,29.24,29.02,10,3,19,0.00
2013-6-5,80.1,64.1,47.1,52.1,46.8,38.6,91,55,33,29.32,29.21,6,1,12,0.00
2013-6-6,69.3,59.9,51.3,60.3,55.7,49.0,99,88,54,29.25,29.10,7,2,12,0.00
2013-6-7,61.9,59.8,57.9,61.6,59.5,57.6,99,99,99,29.10,28.75,8,2,14,0.00
2013-6-8,76.8,65.5,55.8,66.5,61.9,55.5,99,89,69,29.18,28.74,9,2,15,0.00
2013-6-9,83.5,69.3,55.6,69.2,60.8,55.3,99,78,45,29.30,29.17,7,1,12,0.00
2013-6-10,68.9,63.9,60.6,67.8,63.5,60.3,99,99,94,29.28,28.92,8,2,17,0.00
2013-6-11,78.6,70.4,62.6,70.3,66.4,61.6,99,88,70,28.92,28.75,11,3,21,0.00
2013-6-12,78.3,68.6,57.6,64.7,57.9,54.8,99,71,46,28.97,28.83,11,3,21,0.00
2013-6-13,63.0,58.9,54.7,61.9,58.6,54.4,99,99,95,28.97,28.58,9,2,22,0.00
2013-6-14,78.6,60.0,51.8,62.8,56.4,51.5,99,90,49,29.02,28.67,99,2,99,0.00
2013-6-15,82.8,67.8,53.4,62.7,56.7,48.7,99,72,31,29.14,29.02,7,2,14,0.00
2013-6-16,81.9,68.2,52.9,68.0,60.7,52.6,99,80,45,29.12,28.89,7,2,14,0.00
2013-6-17,88.0,74.5,61.7,71.1,65.6,60.3,99,77,48,29.03,28.95,6,2,11,0.00
2013-6-18,86.9,69.9,59.5,73.1,64.8,59.3,99,87,45,29.02,28.92,5,1,11,0.00
2013-6-19,81.1,65.9,55.4,60.3,54.4,48.5,99,72,36,29.28,29.00,7,1,14,0.01
2013-6-20,84.2,67.7,50.5,63.8,57.0,50.3,99,73,39,29.37,29.27,5,1,10,0.00
2013-6-21,85.3,72.7,60.4,64.0,59.4,52.8,92,65,44,29.41,29.34,7,2,11,0.00
2013-6-22,87.1,73.3,57.6,70.1,63.6,55.5,97,74,47,29.37,29.23,6,1,11,0.00
2013-6-23,90.0,78.3,65.5,74.4,69.9,65.2,99,78,50,29.30,29.17,7,2,11,0.00
2013-6-24,94.5,80.0,68.7,74.8,71.6,65.4,99,78,47,29.19,29.07,7,2,11,0.02
2013-6-25,92.1,78.4,65.8,76.7,71.3,65.6,99,81,50,29.13,28.93,8,2,21,0.00
2013-6-26,85.3,76.1,68.5,74.2,70.8,68.2,99,85,64,28.98,28.92,8,2,14,0.00
2013-6-27,90.7,76.9,65.3,78.0,70.6,65.0,99,83,55,28.96,28.65,9,1,17,0.02
2013-6-28,88.3,77.1,70.2,74.2,71.2,68.2,99,84,55,28.67,28.59,7,2,12,0.00
2013-6-29,86.4,74.8,66.0,71.3,68.2,65.7,99,82,53,28.83,28.60,7,1,14,0.00
2013-6-30,86.9,74.7,64.2,78.1,71.5,63.8,99,91,71,29.03,28.82,6,1,12,0.00
2013-7-1,76.5,73.1,69.4,76.0,72.8,69.1,99,99,97,29.16,29.00,6,1,9,0.04
2013-7-2,87.1,76.9,72.3,78.5,74.3,72.0,99,92,72,29.29,29.14,5,1,11,0.04
2013-7-3,87.8,77.6,71.4,76.9,74.0,47.4,99,90,35,29.36,29.28,97,2,97,40.29
2013-7-4,90.7,80.5,73.6,78.0,75.3,73.3,99,85,63,29.37,29.27,6,1,11,0.00
2013-7-5,95.7,82.8,73.6,77.6,75.0,72.9,99,80,51,29.33,29.22,5,1,10,0.00
2013-7-6,93.7,82.6,74.7,77.9,76.0,74.4,99,82,58,29.27,29.16,6,2,10,0.00
2013-7-7,97.5,84.1,72.0,78.6,75.9,69.8,99,79,50,29.19,29.06,8,2,15,0.04
2013-7-8,90.7,78.5,68.5,74.5,71.7,68.2,99,81,53,29.18,29.09,6,2,11,0.00
2013-7-9,93.2,78.1,66.9,75.8,71.2,66.6,99,82,49,29.20,29.11,6,1,99,16.17
2013-7-10,87.6,78.3,70.7,78.0,74.6,70.4,99,89,68,29.14,28.93,7,1,13,0.02
2013-7-11,90.0,77.6,68.0,78.0,70.6,62.8,99,81,52,29.06,28.93,5,1,9,0.05
2013-7-12,80.4,72.2,66.9,72.2,67.7,63.0,99,86,70,29.21,29.05,9,1,15,0.16
2013-7-13,82.2,71.9,65.1,77.8,71.1,64.8,99,97,86,29.40,29.21,8,1,11,0.13
2013-7-14,92.3,81.0,72.3,80.1,74.9,72.0,99,83,57,29.47,29.36,7,2,11,0.00
2013-7-15,97.7,83.7,72.7,78.0,75.2,72.4,99,78,50,29.39,29.28,6,1,12,0.00
2013-7-16,97.3,83.0,70.0,77.2,72.5,67.6,99,75,43,29.35,29.26,4,1,8,0.00
2013-7-17,99.9,83.2,69.6,77.7,72.9,41.2,99,75,40,29.33,29.19,4,1,7,0.00
2013-7-18,99.3,85.7,74.1,79.0,75.7,70.8,99,76,42,29.21,29.09,6,1,12,0.00
2013-7-19,95.2,82.6,73.0,80.3,76.6,72.7,99,84,61,29.11,29.04,8,2,13,0.00
2013-7-23,86.9,76.3,69.1,78.0,73.9,68.8,99,93,72,28.78,28.70,8,1,13,0.82
2013-7-24,82.4,72.0,61.0,71.7,65.0,54.6,99,80,53,29.07,28.75,8,2,13,0.00
2013-7-25,71.6,63.9,59.5,62.8,57.5,51.6,96,80,69,29.17,29.06,6,1,14,0.00
2013-7-26,88.0,72.0,62.8,64.5,62.6,59.5,98,75,44,29.16,29.11,5,1,10,0.37
2013-7-27,88.5,73.2,57.7,70.3,63.8,57.5,99,75,46,29.17,29.05,6,1,12,0.00
2013-7-28,77.9,69.0,64.8,73.8,68.1,63.0,99,97,81,29.10,29.02,4,1,9,0.97
2013-7-29,85.5,72.3,61.9,69.6,63.9,56.7,99,78,43,29.23,29.07,52,2,52,0.01
2013-7-30,82.2,69.3,56.3,63.5,60.1,56.0,99,75,46,29.31,29.22,6,1,11,0.00
2013-7-31,85.3,71.4,57.2,70.5,62.5,56.9,99,77,45,29.29,29.15,5,1,8,0.00
2013-8-1,68.2,66.1,63.5,67.9,65.8,63.2,99,99,99,29.15,28.95,7,1,14,0.84
2013-8-2,84.6,73.1,61.7,69.8,66.1,61.4,99,80,52,29.05,28.92,8,2,17,0.00
2013-8-3,80.4,69.5,61.9,70.7,65.6,-13.1,99,88,68,29.04,28.96,8,2,13,0.09
2013-8-4,80.1,68.5,57.2,72.9,59.2,53.3,99,75,48,29.11,29.00,8,2,15,0.02
2013-8-5,81.0,66.4,53.6,61.2,54.5,46.5,99,70,35,29.20,29.09,8,2,12,0.00
2013-8-6,85.8,68.7,52.7,66.3,58.6,52.4,99,75,38,29.23,29.15,5,1,14,0.00
2013-8-7,79.3,69.0,63.0,71.3,67.3,62.7,99,95,73,29.25,29.16,7,1,12,0.07
2013-8-8,85.6,73.9,68.7,78.8,72.0,68.2,99,94,73,29.18,29.10,6,1,12,0.05
2013-8-9,86.7,75.6,71.6,79.1,74.3,71.3,99,96,74,29.13,28.92,8,2,16,0.50
2013-8-10,84.2,73.3,61.5,72.0,66.9,61.2,99,82,54,29.19,29.01,8,2,16,0.01
2013-8-11,81.5,69.1,56.1,67.4,60.8,54.5,99,79,42,29.25,29.14,6,1,8,0.00
2013-8-12,87.1,72.4,64.4,69.1,65.5,60.9,99,82,44,29.16,29.05,5,1,8,0.14
2013-8-13,83.3,71.0,64.0,73.7,68.8,63.8,99,94,70,29.05,28.81,97,2,97,0.78
2013-8-14,73.4,64.3,55.6,65.6,55.6,52.1,99,75,55,29.17,28.89,11,3,21,0.01
2013-8-15,79.9,64.1,50.4,58.9,54.4,50.1,99,75,39,29.26,29.17,8,1,11,0.00
2013-8-16,84.4,66.4,51.6,66.7,56.3,51.3,99,76,34,29.32,29.24,4,1,8,0.00
2013-8-17,86.7,68.8,40.3,68.4,60.4,40.0,99,79,42,29.39,29.32,5,1,8,21.37
2013-8-18,77.2,67.1,59.5,69.5,63.4,59.3,99,89,64,29.38,29.25,4,0,6,0.02
2013-8-19,82.2,69.5,60.3,68.4,64.5,60.0,99,86,56,29.25,29.16,15,1,15,0.00
2013-8-20,91.2,74.5,61.2,72.9,67.2,60.9,99,81,45,29.26,29.18,5,1,10,0.00
2013-8-21,91.2,74.9,62.2,75.2,66.0,56.0,99,78,34,29.31,29.18,6,1,9,0.00
2013-8-22,82.2,72.5,66.4,77.2,71.2,66.1,99,96,79,29.19,29.00,5,1,9,0.16
2013-8-23,83.8,72.2,61.2,70.2,64.2,58.1,99,79,45,29.24,29.02,8,2,14,0.00
2013-8-24,83.1,67.9,55.2,60.6,55.6,51.0,99,69,35,29.47,29.23,5,1,10,0.00
2013-8-25,85.5,67.7,53.2,63.8,57.9,49.8,99,75,35,29.52,29.34,7,2,11,0.02
2013-8-26,81.0,72.1,65.8,72.2,66.4,60.0,99,83,68,29.35,29.03,8,2,12,1.64
2013-8-27,90.3,76.5,68.0,73.5,70.7,67.7,99,84,54,29.05,28.95,7,2,12,0.01
2013-8-28,88.2,72.5,64.6,79.5,70.8,64.3,99,95,65,29.04,28.97,7,0,11,0.25
2013-8-29,84.0,71.8,65.8,76.2,69.9,65.6,99,94,72,29.15,29.01,4,0,8,0.01
2013-8-30,86.4,74.1,67.3,75.3,71.0,67.0,99,91,65,29.15,28.98,7,2,11,0.00
2013-8-31,88.0,77.4,71.8,78.5,74.9,71.5,99,92,70,28.99,28.91,5,1,9,0.00
2013-9-1,85.1,77.3,71.1,78.8,75.3,17.1,99,94,78,28.98,28.92,5,1,103,0.00
2013-9-2,81.3,73.1,68.4,78.4,72.5,68.1,99,98,83,28.94,28.84,4,0,8,0.12
2013-9-3,82.4,71.4,63.5,70.9,65.0,60.3,99,82,55,29.02,28.84,8,2,12,0.52
2013-9-4,83.3,70.1,59.9,65.7,62.2,58.4,99,78,47,29.13,29.01,8,2,14,0.00
2013-9-5,76.8,67.8,55.2,64.7,56.6,43.4,92,70,34,29.29,29.04,10,3,21,0.00
2013-9-6,75.9,59.2,46.9,50.6,47.0,39.3,99,69,31,29.37,29.25,5,1,11,0.00
2013-9-7,80.6,63.4,46.6,61.2,52.6,46.3,99,73,33,29.26,29.02,7,2,11,0.00
2013-9-8,80.6,68.7,57.2,68.2,58.6,44.7,94,72,39,29.20,28.94,9,3,21,0.00
2013-9-9,77.5,62.1,46.4,63.0,53.7,46.1,99,76,49,29.35,29.19,7,1,11,0.00
2013-9-10,88.3,74.1,64.0,77.7,71.4,63.2,99,92,69,29.27,29.16,6,2,13,0.00
2013-9-11,96.6,82.0,71.1,82.4,76.7,70.8,99,86,60,29.24,29.11,6,1,9,0.00
2013-9-12,85.8,75.9,68.2,79.4,74.7,67.7,99,96,75,29.12,28.82,13,1,18,0.00
2013-9-13,73.0,64.1,54.9,66.6,58.6,23.8,95,83,67,28.99,28.79,9,3,112,23.26
2013-9-14,65.1,56.0,45.1,52.8,50.0,44.9,99,81,60,29.25,28.99,11,3,18,0.00
2013-9-15,75.0,57.2,42.3,56.6,49.7,42.0,99,80,40,29.34,29.20,6,1,9,0.00
2013-9-16,74.1,61.6,52.7,60.3,56.5,48.9,99,85,54,29.37,29.14,7,2,14,0.00
2013-9-17,69.4,54.0,43.0,50.2,43.8,39.5,99,72,38,29.54,29.36,7,2,15,0.00
2013-9-18,75.2,55.4,40.5,58.3,46.6,40.2,99,78,36,29.46,29.30,4,1,8,0.00
2013-9-19,81.0,59.4,43.9,60.1,50.8,43.4,99,78,36,29.31,29.19,5,1,8,0.02
2013-9-20,82.8,64.4,48.9,68.6,57.7,48.7,99,82,50,29.21,29.10,7,1,11,0.02
2013-9-21,80.2,64.8,55.0,68.4,60.7,54.8,99,88,53,29.12,28.78,10,1,20,1.45
2013-9-22,67.3,59.7,52.0,60.0,52.7,43.4,99,79,55,29.05,28.78,11,3,24,0.09
2013-9-23,63.9,54.3,45.9,47.9,45.5,43.6,93,73,52,29.17,29.03,9,3,17,0.00
2013-9-24,74.7,57.1,42.4,50.9,46.5,42.2,99,72,37,29.17,29.01,8,2,18,0.00
2013-9-25,77.4,57.5,42.6,54.6,49.1,42.4,99,78,40,29.09,28.99,4,1,8,0.00
2013-9-26,75.9,58.1,46.9,63.2,54.7,46.7,99,90,58,29.22,29.06,4,1,8,0.02
2013-9-27,74.7,58.7,48.0,58.7,53.8,47.8,99,86,53,29.37,29.21,5,1,8,0.00
2013-9-28,78.3,61.3,49.8,61.0,53.8,49.6,99,80,41,29.44,29.35,7,1,11,0.00
2013-9-29,75.2,59.0,46.6,62.8,54.0,46.3,99,86,54,29.35,29.18,4,1,7,0.02
2013-9-30,81.7,59.7,45.5,63.7,52.5,45.2,99,81,38,29.21,29.08,5,1,8,0.01
2013-10-1,84.0,63.2,49.3,65.9,57.8,49.0,99,85,50,29.14,29.02,4,1,8,0.00
2013-10-2,83.7,67.6,52.9,68.1,61.2,52.6,99,82,53,29.14,29.04,8,1,14,0.02
2013-10-3,81.9,66.4,53.2,68.7,59.6,51.0,99,82,38,29.24,29.14,4,0,6,0.01
2013-10-4,84.6,69.7,58.6,73.7,65.6,58.2,99,88,61,29.18,29.09,6,1,16,0.18
2013-10-5,86.4,70.5,61.2,72.8,66.9,60.9,99,90,59,29.21,29.13,5,1,10,0.01
2013-10-6,66.6,65.0,63.5,66.3,64.7,63.2,99,99,99,29.20,29.12,7,2,11,0.07
2013-10-7,73.6,65.4,54.9,73.3,64.9,51.5,99,98,87,29.12,28.85,10,3,21,0.86
2013-10-8,70.5,57.1,49.5,52.5,49.5,45.1,99,78,43,29.44,29.10,8,1,13,0.00
2013-10-9,61.5,52.3,44.2,50.3,47.3,42.9,99,84,58,29.51,29.40,7,1,14,0.00
2013-10-10,60.4,55.3,50.0,57.9,53.2,47.6,99,93,88,29.40,29.19,5,1,14,0.02
2013-10-11,64.8,61.0,56.8,62.9,59.6,55.2,99,96,87,29.22,29.14,7,2,12,0.00
2013-10-12,75.7,63.5,55.6,60.8,50.3,30.4,99,67,23,29.39,29.19,10,2,17,0.00
2013-10-13,68.9,57.1,48.2,56.8,53.1,47.8,99,88,59,29.50,29.38,8,2,16,0.00
2013-10-14,74.7,55.8,43.2,58.9,49.8,42.9,99,83,47,29.47,29.34,3,1,5,0.00
2013-10-15,77.7,58.5,45.3,63.5,52.2,45.1,99,82,51,29.37,29.22,8,1,11,0.00
2013-10-16,68.2,57.8,47.7,61.4,56.0,47.4,99,94,76,29.22,29.02,4,0,7,0.00
2013-10-17,79.9,66.0,59.7,65.6,62.2,59.4,99,89,53,29.02,28.78,8,1,15,0.01
2013-10-18,66.9,59.0,46.9,64.7,50.7,43.6,99,76,50,29.09,28.77,13,4,20,0.00
2013-10-19,56.5,46.7,40.3,53.3,45.2,40.0,99,95,77,29.10,28.86,6,0,9,0.09
2013-10-20,70.0,51.9,39.4,52.6,43.8,36.1,99,77,37,29.18,28.87,11,4,19,0.02
2013-10-21,70.5,51.9,35.6,53.8,40.9,35.3,99,72,31,29.25,29.08,6,1,12,0.00
2013-10-22,68.4,52.8,44.4,56.9,47.3,37.5,99,83,60,29.09,28.85,6,2,10,0.00
2013-10-23,61.7,44.7,34.5,43.2,38.0,34.0,99,79,39,28.93,28.72,8,1,14,0.00
2013-10-24,56.1,43.1,35.2,39.5,35.3,28.8,99,76,44,29.10,28.86,12,4,19,0.00
2013-10-25,52.9,42.7,33.8,39.0,34.6,30.8,99,75,45,29.32,29.09,14,3,22,0.00
2013-10-26,57.4,43.6,30.4,41.2,33.5,30.1,99,71,38,29.32,28.98,8,2,19,0.00
2013-10-27,58.1,48.1,40.3,38.8,35.5,32.5,80,62,40,29.23,28.95,12,3,18,0.00
2013-10-28,62.1,45.8,29.5,43.0,35.6,29.2,99,71,39,29.42,29.21,8,1,14,0.00
2013-10-29,60.3,43.9,34.2,39.1,34.9,31.8,95,73,38,29.51,29.41,6,1,8,0.00
2013-10-30,57.7,45.5,33.1,53.4,44.1,31.8,99,95,85,29.45,29.28,4,0,8,0.00
2013-10-31,62.8,55.6,44.6,62.5,55.3,44.2,99,99,99,29.33,28.89,7,1,14,0.06
2013-11-1,66.9,61.0,47.1,66.6,60.7,46.7,99,99,99,28.90,28.64,16,3,22,0.29
2013-11-2,71.4,53.8,43.3,54.0,46.9,40.5,99,80,46,28.90,28.74,11,2,17,0.00
2013-11-3,49.1,41.6,30.2,45.3,33.4,21.6,95,74,46,29.54,28.90,13,4,21,0.00
2013-11-4,52.2,35.7,25.3,26.1,20.8,12.8,86,58,23,29.74,29.54,7,1,17,0.00
2013-11-5,55.2,43.1,30.4,44.3,37.3,24.8,97,81,58,29.74,29.55,8,1,11,0.00
2013-11-6,58.3,51.3,42.4,50.0,47.2,42.2,99,87,68,29.58,29.25,6,1,11,0.00
2013-11-7,41.7,40.4,39.0,35.8,35.4,34.9,87,82,77,29.04,29.02,8,3,13,0.21
2013-11-8,47.1,40.7,35.8,37.7,31.3,24.5,99,70,48,29.30,29.03,15,5,27,0.00
2013-11-9,53.6,40.9,29.8,36.0,31.1,28.3,98,70,41,29.37,29.07,6,2,13,0.00
2013-11-10,59.7,47.3,40.5,41.6,36.8,33.7,88,69,43,29.07,28.92,21,3,35,0.00
2013-11-15,34.7,32.8,31.3,30.1,28.4,27.5,87,84,80,29.31,29.30,1,0,2,0.00
2013-11-16,68.9,49.5,34.7,49.1,42.0,30.1,99,78,42,29.41,29.30,4,0,7,0.00
2013-11-17,59.2,53.1,47.5,58.9,52.8,47.2,99,99,99,29.35,28.85,8,1,14,0.06
2013-11-18,64.8,56.5,46.2,60.5,43.8,30.8,99,66,38,28.90,28.69,17,4,23,0.30
2013-11-19,46.2,39.3,31.6,32.6,27.3,23.7,73,62,50,29.44,28.89,16,6,28,0.00
2013-11-20,51.3,33.9,24.6,24.6,18.9,3.5,80,59,15,29.68,29.42,10,2,19,0.00
2013-11-21,51.6,37.7,21.2,42.7,31.3,19.0,96,79,53,29.68,29.46,7,1,12,0.00
2013-11-22,57.0,49.4,44.2,52.7,48.6,42.6,99,97,83,29.46,29.01,10,2,23,0.02
2013-11-23,50.9,38.0,24.6,49.8,28.5,12.7,99,70,44,29.16,28.98,21,6,34,0.00
2013-11-24,26.6,21.4,18.1,12.7,7.6,3.2,67,55,39,29.44,29.10,19,8,35,0.00
2013-11-25,39.6,26.5,16.3,20.0,14.4,9.5,78,61,43,29.52,29.36,9,3,15,0.00
2013-11-26,43.5,32.4,29.7,43.3,25.9,16.2,99,78,56,29.38,28.83,7,2,15,0.34
2013-11-27,58.8,40.7,29.7,58.5,39.8,21.1,99,97,71,28.83,28.47,21,6,34,1.20
2013-11-28,34.2,27.5,22.6,21.9,16.9,10.6,81,65,42,29.51,28.83,19,6,32,0.00
2013-11-29,41.2,29.0,20.8,26.0,21.6,16.5,86,74,53,29.78,29.50,8,2,12,0.00
2013-11-30,34.5,26.2,15.6,27.7,19.0,13.6,93,75,46,29.79,29.43,8,1,12,0.00
2013-12-1,55.4,36.1,24.3,37.2,31.0,24.0,99,84,45,29.43,29.08,4,0,6,0.00
2013-12-2,49.5,36.3,28.6,37.4,33.1,28.3,99,89,59,29.08,28.96,4,0,6,0.00
2013-12-3,56.5,37.2,27.9,44.9,33.4,27.6,99,88,51,29.09,28.96,5,0,8,0.00
2013-12-4,56.5,41.7,28.4,46.3,38.0,28.2,99,88,59,29.20,29.09,4,0,9,0.00
2013-12-5,53.8,49.7,45.0,53.5,49.4,44.7,99,99,97,29.20,29.02,4,1,8,0.05
2013-12-6,57.4,43.5,34.3,56.9,43.3,34.1,99,99,99,29.23,28.96,13,3,21,0.83
2013-12-7,41.0,32.6,25.9,34.1,27.8,17.1,99,83,62,29.59,29.16,11,3,18,0.00
2013-12-8,30.7,25.7,21.9,27.1,20.7,16.5,99,82,64,29.65,29.43,5,1,9,0.00
2013-12-9,35.6,32.3,27.3,35.3,32.0,27.1,99,99,99,29.44,29.05,6,0,11,0.02
2013-12-10,33.4,29.8,22.8,33.2,29.0,18.5,99,97,83,29.18,28.95,0,0,0,0.00
2013-12-11,35.4,25.3,20.3,21.3,18.6,16.0,85,76,52,29.37,29.18,10,2,14,0.00
2013-12-12,26.8,20.7,16.5,18.9,11.0,6.9,89,67,47,29.41,29.20,11,4,18,0.00
2013-12-13,33.3,24.2,15.1,21.9,15.1,6.7,87,69,54,29.38,29.17,14,3,23,0.00
2013-12-14,26.8,21.6,16.5,26.4,20.3,16.3,99,95,79,29.53,28.86,10,3,24,0.00
2013-12-15,37.0,29.3,21.0,34.9,27.3,20.6,99,93,78,28.91,28.63,8,0,17,0.04
2013-12-16,28.8,22.2,9.1,25.0,14.0,7.8,95,71,48,29.29,28.90,15,2,22,0.00
2013-12-17,25.2,17.1,8.1,24.9,16.6,6.9,99,98,94,29.29,29.02,5,1,9,0.00
2013-12-18,36.5,25.2,13.8,26.6,20.9,13.4,99,84,63,29.24,29.00,14,3,19,0.01
2013-12-19,45.5,31.1,14.7,30.9,24.1,14.5,99,78,46,29.25,29.10,8,1,12,0.09
2013-12-20,56.7,40.9,30.4,41.4,33.2,29.2,99,77,40,29.20,29.06,5,1,11,0.00
2013-12-21,62.8,46.7,35.8,54.2,43.0,35.3,99,88,55,29.10,29.00,4,1,10,0.00
2013-12-22,65.7,59.9,48.2,63.9,59.3,47.9,99,98,90,29.06,28.89,11,2,17,0.04
2013-12-23,57.4,49.4,35.4,57.1,48.8,30.7,99,98,81,29.24,29.02,13,2,24,0.56
2013-12-24,39.2,30.7,20.3,30.6,23.6,11.3,99,75,57,29.41,29.18,14,5,27,0.00
2013-12-25,36.5,20.6,13.5,16.9,10.8,7.6,79,66,41,29.58,29.41,17,3,30,0.00
2013-12-26,33.8,26.7,19.0,30.6,24.2,14.7,99,90,71,29.47,29.23,5,1,10,0.00
2013-12-27,40.8,30.7,24.6,27.3,24.5,20.4,99,79,46,29.41,29.33,10,2,19,0.00
2013-12-28,52.5,34.6,21.9,31.1,27.0,21.7,99,78,41,29.35,29.16,8,1,12,0.00
2013-12-29,42.3,36.6,30.0,41.1,35.8,29.8,99,97,71,29.16,28.57,10,2,17,0.77
2013-12-30,39.7,31.5,17.1,39.5,27.3,10.9,99,85,67,29.26,28.79,13,4,21,0.00
2013-12-31,29.3,21.7,14.0,27.0,14.8,9.2,99,75,57,29.33,29.11,14,3,22,0.00
2014-1-1,31.5,24.1,15.6,23.3,17.7,10.8,89,76,65,29.45,29.30,8,1,11,0.00
2014-1-2,26.6,20.5,0.9,23.2,19.1,0.6,99,95,81,29.30,28.76,7,2,14,0.00